Regional Weather Roundup
Issued by NWS Huntsville, AL

Home | Current Version | Previous Version | Text Only | Print | Product List | Glossary On
Versions: 1 2 3 4 5 6 7 8 9 10 11 12 13 14 15 16 17 18 19 20 21 22 23 24 25 26 27 28 29 30 31 32 33 34 35 36 37 38 39 40 41 42 43 44 45 46 47 48 49 50
000
ASUS44 KHUN 251000
RWRHUN

WEATHER ROUNDUP FOR THE TENNESSEE VALLEY
NATIONAL WEATHER SERVICE HUNTSVILLE AL
500 AM CDT FRI JUL 25 2014

ALZ001>004-251100-
NORTHWEST ALABAMA

CITY           SKY/WX    TMP DP  RH WIND       PRES   REMARKS
SHOALS AIRPORT CLEAR     63  60  90 CALM      30.03R FOG
$$

ALZ005>007-016-251100-
NORTH CENTRAL ALABAMA

CITY           SKY/WX    TMP DP  RH WIND       PRES   REMARKS
DECATUR AP     FOG       62  61  96 N3        30.02R VSB 3/4
HUNTSVILLE AP  CLEAR     67  64  90 CALM      30.01R FOG
HUN NWS/UAH      N/A     67  63  86 N2          N/A
$$

ALZ008>010-251100-
NORTHEAST ALABAMA

CITY           SKY/WX    TMP DP  RH WIND       PRES   REMARKS
FORT PAYNE     NOT AVBL
SCOTTSBORO AP  CLEAR     64  64 100 CALM      30.04R FOG
SCOTTSBORO HCN   N/A     64 N/A N/A MISG        N/A
VALLEY HEAD      N/A     63 N/A N/A MISG        N/A
$$

TNZ076-096-097-251100-
SOUTHEASTERN MIDDLE TENNESSEE

CITY           SKY/WX    TMP DP  RH WIND       PRES   REMARKS
FAYETTEVILLE   CLEAR     63  61  94 NE7       30.04R
TULLAHOMA      CLEAR     63  61  94 CALM      30.06R
WINCHESTER     MOCLDY    59  59 100 CALM      30.05R
$$

...SURROUNDING SITES...

CITY           SKY/WX    TMP DP  RH WIND       PRES   REMARKS
ATLANTA        PTCLDY    70  68  93 W3        30.00R
ANNISTON       FOG       70  69  97 SE3       30.01R VSB 1/4
BIRMINGHAM     CLEAR     69  66  90 CALM      30.02R
CHATTANOOGA    PTCLDY    66  62  87 CALM      30.03R
DALTON         NOT AVBL
GADSDEN        CLEAR     66  63  88 CALM      30.00R
GOLDEN TRNGL   CLEAR     63  57  82 CALM      30.01R
JACKSON TN     CLEAR     59  57  93 CALM      30.04S FOG
MEMPHIS        CLEAR     67  60  78 CALM      30.02S
NASHVILLE      CLEAR     63  58  83 NE3       30.06R
ROME           CLEAR     66  64  93 NW3       30.01R
SAVANNAH       CLOUDY    61  61 100 CALM      30.04R VSB 1/4
TUPELO         CLEAR     63  60  90 N3        30.02R
TUSCALOOSA     CLEAR     68  66  93 CALM      30.00R
$$

...GULF COAST WEATHER...

CITY           SKY/WX    TMP DP  RH WIND       PRES   REMARKS
GULFPORT       CLEAR     78  73  84 CALM      29.97S
PASCAGOULA     CLEAR     72  71  97 CALM      29.98R
PENSACOLA      PTCLDY    75  74  96 CALM      29.97F
DESTIN         CLEAR     82  75  79 CALM      29.99S
PANAMA CITY    CLEAR     81  76  83 SW8       30.02R
APPALACHICOLA  PTCLDY    77  74  90 CALM      30.02R
$$




USA.gov is the U.S. government's official web portal to all federal, state and local government web resources and services.